Showing default

FOSSASAT2E18 (TAT-A), 62686

Orbit data source: Space-Track

FOSSASAT2E18 (TAT-A), 62686 is a payload satellite owned by Fossa Systems (ES) in SSO that was launched on Tue, 14 Jan 2025 UTC via an FALCON 9 launch vehicle from the Air Force Western Test Range (AFWTR). Payload-class satellites include a variety of spacecraft equipped with specific instruments for various scientific and technological missions. These include communications satellites like Starlink; space stations such as the ISS; scientific satellites like the Hubble; Earth observation satellites from companies like Planet Labs, Umbra, and HawkEye 360; GPS; miniature CubeSats for education and research; and military/defense satellites.

Loading next visibility...
Identifier
62686, 2025-009CF
Orbit
SSO
Country
Flag of ESES / SPN
Related business
Manufacturer
Fossa Systems
Mission
Operational Commercial Communications
Bus & Motor
CUBESAT 3U, Unknown motor
Mass
4 kg wet, 4 kg dry
Launch date (UTC)
2025-01-14 (9 months ago)
Launch vehicle
FALCON 9
Launch site
Air Force Western Test Range (AFWTR)
Object type
Payload
Rocket body
Debris
Shape & HBR
Box + 2 Pan, 0.4 m
Radar Cross Section
0.035 m², Medium (>0.1 m² and < 1m²)

Expand to show TLE details & history
Last TLE update: 12 hours ago

TLE from 12 hours ago
0 FOSSASAT2E18 (TAT-A)
1 62686U 25009CF  25286.49290305  .00005152  00000-0  24835-3 0  9997
2 62686  97.4196   4.2352 0007769 114.9960 245.2083 15.19125708 41212
Epoch: 2025-10-13T11:49Z
TLE epoch observation values (Epoch: 2025-10-13T11:49:46.823Z)
Latitude
0.00005°
Longitude
164.4952°
Altitude
513.818 km
Speed
7.606 km/s
True Right ascension
00h 16m 56s
True Declination
0° 00' 00"
Sunlit
Object was in full shadow at epoch
Visualization orbit readout
Latitude
Unknown
Longitude
Unknown
Altitude
Unknown
Speed
Unknown
Apparent Right ascension
Unknown
Apparent Declination
Unknown
Sunlit
N/A
Visualization observer readout
Local Sidereal Time
18:49:02
Azimuth
Unknown
Elevation
Unknown
Doppler factor
Unknown
Orbital elements
Apogee altitude
510.797 km
Perigee altitude
500.101 km
Semi-major axis
6,883.586 km
Eccentricity
0.00078
Inclination
97.4196°
RAAN
4.2352°
Arg. of periapsis
114.996°
True anomaly
245.12751°
Mean anomaly
245.2083°
Eccentric anomaly
245.1679°
Mean motion
3.80033 °/min
Orbital period
94.73 mins
BSTAR
0.00024835
Loading maneuver chart data...
Computing Atmospheric mass density...
Loading historical data...
Loading historical data...
Loading historical data...
Loading historical data...
Loading historical data...
Loading historical data...
Loading historical data...

Documentation

Showing up to 5 results
|